Location: Beranovka
(49.9415°N, 12.8435°E)
Time: 00:08:12
(UTC+00:00)

CENTAUR R/B - Pass Details

Date: 10 August 2020
Orbit: 756 x 1432 km, 63.4° (Epoch: 19 September)

Event Time Altitude Azimuth Distance (km) Brightness Sun altitude
Exits shadow 19:27:39 - 149° (SSE) 2,791 4.3 -8.1°
Reaches altitude 10° 19:28:39 10° 142° (SE) 2,575 4.1 -8.2°
Maximum altitude 19:32:13 16° 104° (ESE) 2,267 3.9 -8.7°
Drops below altitude 10° 19:36:06 10° 68° (ENE) 2,851 4.6 -9.2°
Sets 19:39:59 0° 50° (NE) 3,957 5.6 -9.7°
